{"data":{"norad_id":65122,"intl_designator":"2025-170D","name":"GEESAT-4 04","alt_names":[],"object_type":"PAYLOAD","status":"ACTIVE","operator":null,"country":"PRC","launch_date":"2025-08-08","launch_site_code":"YSLA","launch_vehicle":null,"mission":null,"orbit_class":"UNKNOWN","rcs_meters":null,"size_class":null,"mass_kg":null,"dimensions":null,"purposes":[],"wikipedia_slug":null,"has_3d_model":false,"image_url":null,"decayed_at":null,"tle_current":{"epoch":"2026-05-25T05:09:53.150400Z","epoch_age_seconds":66975,"freshness":"FRESH","line1":"1 65122U 25170D   26145.21519850  .00001359  00000+0  19644-3 0  9994","line2":"2 65122  49.9703 234.0062 0030265 224.8666 134.9825 14.82047045 43641","mean_motion":14.82047045,"eccentricity":0.0030265,"inclination_deg":49.9703,"raan_deg":234.0062,"arg_perigee_deg":224.8666,"mean_anomaly_deg":134.9825,"bstar":0.00019644,"rev_number":4364,"period_min":97.162907537797,"perigee_km":601.68149918711,"apogee_km":644.05859484269,"semimajor_km":7001.0070470149,"source":"CELESTRAK","updated_at":"2026-05-25T13:38:05.137862Z"}}}